Location: Seasalter
(51.3333°N, 1.0167°E)
Time: 19:02:32
(UTC+00:00)

Cosmos 2237 - Pass Details

Date: 26 September 2023
Orbit: 844 x 857 km, 70.8° (Epoch: 08 December)

Event Time Altitude Azimuth Distance (km) Brightness Sun altitude
Rises 03:36:49 0° 326° (NW) 3,439 7.3 -20.6°
Reaches altitude 10° 03:39:23 10° 319° (NW) 2,500 6.5 -20.3°
Maximum altitude 03:44:45 43° 250° (WSW) 1,198 4.5 -19.5°
Drops below altitude 10° 03:50:06 10° 181° (S) 2,485 6.4 -18.7°
Sets 03:52:39 0° 175° (S) 3,417 7.2 -18.4°
